TimeEDT,TemperatureF,Dew PointF,Humidity,Sea Level PressureIn,VisibilityMPH,Wind Direction,Wind SpeedMPH,Gust SpeedMPH,PrecipitationIn,Events,Conditions,WindDirDegrees,DateUTC
12:53 AM,42.1,37.0,82,30.28,5.0,Calm,Calm,-,N/A,,Smoke,0,2013-03-28 04:53:00
1:53 AM,41.0,37.0,86,30.27,6.0,Calm,Calm,-,N/A,,Clear,0,2013-03-28 05:53:00
2:53 AM,41.0,37.0,86,30.27,7.0,WSW,3.5,-,N/A,,Clear,250,2013-03-28 06:53:00
3:53 AM,41.0,37.0,86,30.25,10.0,Calm,Calm,-,N/A,,Clear,0,2013-03-28 07:53:00
4:53 AM,39.9,37.0,89,30.26,10.0,Calm,Calm,-,N/A,,Clear,0,2013-03-28 08:53:00
5:53 AM,39.9,37.0,89,30.26,9.0,Calm,Calm,-,N/A,,Clear,0,2013-03-28 09:53:00
6:53 AM,37.9,36.0,93,30.27,9.0,Calm,Calm,-,N/A,,Partly Cloudy,0,2013-03-28 10:53:00
7:53 AM,41.0,37.0,86,30.27,10.0,WNW,3.5,-,N/A,,Clear,290,2013-03-28 11:53:00
8:53 AM,48.9,36.0,61,30.29,10.0,NNW,5.8,-,N/A,,Clear,330,2013-03-28 12:53:00
9:53 AM,55.0,34.0,45,30.30,10.0,NW,8.1,-,N/A,,Clear,320,2013-03-28 13:53:00
10:53 AM,61.0,28.0,29,30.31,10.0,NNW,9.2,-,N/A,,Clear,330,2013-03-28 14:53:00
11:53 AM,64.0,27.0,25,30.30,10.0,NNE,6.9,-,N/A,,Clear,20,2013-03-28 15:53:00
12:53 PM,66.0,26.1,22,30.29,10.0,Variable,5.8,-,N/A,,Clear,0,2013-03-28 16:53:00
1:53 PM,64.9,34.0,32,30.27,10.0,NE,9.2,-,N/A,,Clear,40,2013-03-28 17:53:00
2:53 PM,64.9,36.0,34,30.25,10.0,NNE,12.7,18.4,N/A,,Clear,30,2013-03-28 18:53:00
3:53 PM,64.9,37.9,37,30.24,10.0,NNE,15.0,-,N/A,,Partly Cloudy,30,2013-03-28 19:53:00
4:53 PM,64.0,39.0,40,30.23,10.0,NE,13.8,-,N/A,,Partly Cloudy,40,2013-03-28 20:53:00
5:53 PM,63.0,39.0,41,30.24,10.0,NE,10.4,-,N/A,,Partly Cloudy,50,2013-03-28 21:53:00
6:53 PM,61.0,41.0,48,30.25,10.0,NE,10.4,-,N/A,,Partly Cloudy,40,2013-03-28 22:53:00
7:53 PM,57.9,41.0,53,30.26,10.0,NE,9.2,-,N/A,,Partly Cloudy,40,2013-03-28 23:53:00
8:53 PM,57.0,42.1,57,30.27,10.0,NE,5.8,-,N/A,,Clear,40,2013-03-29 00:53:00
9:53 PM,52.0,43.0,71,30.28,10.0,Calm,Calm,-,N/A,,Clear,0,2013-03-29 01:53:00
10:53 PM,48.9,43.0,80,30.30,10.0,Calm,Calm,-,N/A,,Clear,0,2013-03-29 02:53:00
11:53 PM,48.0,43.0,83,30.30,10.0,Calm,Calm,-,N/A,,Clear,0,2013-03-29 03:53:00